This is the latest recevied weather packets stored in our database for station/object W5ALL-WX. If no packets are shown the sender has not sent any weather packets the latest 10 day(s).
| Time | Temp. | Humidity | Pressure | Rain* | Wind** | Luminosity | Snow |
|---|---|---|---|---|---|---|---|
| 1777324200 | 26.11° C | 6% | 1012.2 hPa | 0 mm | - | - | - |
| 1777323900 | 25.56° C | 6% | 1012.4 hPa | 0 mm | - | - | - |
| 1777323600 | 25° C | 6% | 1012.5 hPa | 0 mm | - | - | - |
| 1777323300 | 24.44° C | 7% | 1012.6 hPa | 0 mm | - | - | - |
| 1777323000 | 24.44° C | 6% | 1012.8 hPa | 0 mm | - | - | - |
| 1777322700 | 25° C | 6% | 1012.8 hPa | 0 mm | - | - | - |
| 1777322400 | 24.44° C | 7% | 1012.9 hPa | 0 mm | - | - | - |
| 1777322100 | 24.44° C | 7% | 1013.1 hPa | 0 mm | - | - | - |
| 1777321800 | 24.44° C | 7% | 1013.1 hPa | 0 mm | - | - | - |
| 1777321500 | 25° C | 6% | 1013.3 hPa | 0 mm | - | - | - |
| 1777321200 | 25° C | 7% | 1013.2 hPa | 0 mm | - | - | - |
| 1777320900 | 24.44° C | 7% | 1013.3 hPa | 0 mm | - | - | - |
| 1777320600 | 24.44° C | 7% | 1013.4 hPa | 0 mm | - | - | - |
| 1777320300 | 24.44° C | 7% | 1013.5 hPa | 0 mm | - | - | - |
| 1777320000 | 24.44° C | 8% | 1013.5 hPa | 0 mm | - | - | - |
| 1777319700 | 23.89° C | 8% | 1013.4 hPa | 0 mm | - | - | - |
| 1777319400 | 24.44° C | 7% | 1013.5 hPa | 0 mm | - | - | - |
| 1777319100 | 24.44° C | 8% | 1013.5 hPa | 0 mm | - | - | - |
| 1777318800 | 23.89° C | 8% | 1013.6 hPa | 0 mm | - | - | - |
| 1777318500 | 23.89° C | 8% | 1013.6 hPa | 0 mm | - | - | - |
| 1777318200 | 23.89° C | 8% | 1013.8 hPa | 0 mm | - | - | - |
| 1777317900 | 23.89° C | 8% | 1013.9 hPa | 0 mm | - | - | - |
| 1777317600 | 23.33° C | 9% | 1013.8 hPa | 0 mm | - | - | - |
| 1777317300 | 23.89° C | 10% | 1013.9 hPa | 0 mm | - | - | - |
| 1777317000 | 23.89° C | 11% | 1013.9 hPa | 0 mm | - | - | - |
* Rain latest hour (hover to see other rain measurements)
** Current wind speed in m/s (hover to see current wind gust speed)